Location: Newark
(45.8511°N, 10.8245°E)
Time: 11:52:23
(UTC+00:00)

OTV 5 (USA 277) - Pass Details

Date: 29 August 2019
Orbit: 295 x 339 km, 54.5° (Epoch: 08 September)

Event Time Altitude Azimuth Distance (km) Brightness Sun altitude
Rises 19:06:41 0° 266° (W) 2,004 ? -11.5°
Reaches altitude 10° 19:08:52 10° 283° (WNW) 1,175 ? -11.9°
Maximum altitude 19:11:01 22° 338° (NNW) 714 ? -12.2°
Drops below altitude 10° 19:13:09 10° 34° (NE) 1,168 ? -12.5°
Enters shadow 19:14:28 - 46° (NE) 1,653 ? -12.7°
